www.pogodaiklimat.ru

Архив погоды в Зандерее (Суринам)

Время
(UTC), дата
07 14.04
08 14.04
09 14.04
10 14.04
11 14.04
12 14.04
13 14.04
14 14.04
15 14.04
16 14.04
17 14.04
18 14.04
19 14.04
20 14.04
21 14.04
22 14.04
23 14.04
00 15.04
01 15.04
02 15.04
04 15.04
06 15.04
07 15.04
08 15.04
09 15.04
10 15.04
11 15.04
12 15.04
13 15.04
14 15.04
15 15.04
16 15.04
17 15.04
18 15.04
19 15.04
20 15.04
21 15.04
22 15.04
23 15.04
00 16.04
01 16.04
02 16.04
03 16.04
04 16.04
05 16.04
06 16.04
07 16.04
08 16.04
09 16.04
10 16.04
11 16.04
12 16.04
13 16.04
14 16.04
15 16.04
16 16.04
17 16.04
18 16.04
19 16.04
20 16.04
21 16.04
22 16.04
23 16.04
00 17.04
01 17.04
02 17.04
03 17.04
04 17.04
05 17.04
06 17.04
07 17.04
08 17.04
09 17.04
10 17.04
11 17.04
12 17.04
13 17.04
14 17.04
15 17.04
16 17.04
17 17.04
18 17.04
19 17.04
20 17.04
21 17.04
22 17.04
23 17.04
00 18.04
01 18.04
02 18.04
03 18.04
04 18.04
05 18.04
06 18.04
07 18.04
08 18.04
09 18.04
10 18.04
11 18.04
12 18.04
13 18.04
14 18.04
15 18.04
16 18.04
17 18.04
18 18.04
19 18.04
20 18.04
21 18.04
22 18.04
23 18.04
00 19.04
01 19.04
02 19.04
03 19.04
04 19.04
05 19.04
06 19.04
07 19.04
08 19.04
09 19.04
10 19.04
11 19.04
12 19.04
13 19.04
14 19.04
15 19.04
16 19.04
17 19.04
18 19.04
19 19.04
20 19.04
21 19.04
22 19.04
23 19.04
00 20.04
01 20.04
02 20.04
03 20.04
04 20.04
05 20.04
06 20.04
07 20.04
08 20.04
09 20.04
10 20.04
11 20.04
12 20.04
13 20.04
14 20.04
15 20.04
16 20.04
17 20.04
18 20.04
19 20.04
20 20.04
21 20.04
22 20.04
23 20.04
00 21.04
01 21.04
02 21.04
03 21.04
04 21.04
05 21.04
06 21.04
07 21.04
Ветер
(напр.,м/с)
Видим. Явления Облачность Т
(С)
Тd
(С)
f
(%)
Тe
(С)
Тes
(С)
Комфортность P
(гПа)
Po
(гПа)
Тmin
(С)
Tmax
(С)
R
(мм)
R24
(мм)
S
(см)
В 1 10 км 2/2 300 м +25.0 +23.0 89 +33 +33 очень душно 1010.0 1007.9
ЮВ 1 10 км 2/2 300 м +24.0 +23.0 94 +32 +32 очень душно 1010.0 1007.9
ЮВ 1 10 км дымка туман 6/5 300 м
[Cu Sc Ac trans Ci sp]
+24.0 +23.1 94 +32 +32 очень душно 1010.5 1008.8
штиль 0 10 км 5/5 450 м +24.0 +23.0 94 +32 +32 очень душно 1010.0 1007.9
В 1 10 км 2/2 360 м +25.0 +24.0 94 +34 +37 очень душно 1011.0 1008.9
В 3 10 км мгла 6/5 240 м
[Cb calv Ac trans Ci sp]
+27.9 +24.0 79 +39 +44 очень душно 1012.0 1010.3 0.2
СВ 5 10 км 5/5 300 м +29.0 +23.0 70 +39 +42 очень душно 1012.0 1010.0
С 3 10 км слаб. ливневой дождь 5/5 240 м
[Cb]
+29.0 +24.0 74 +40 +48 очень душно 1012.0 1010.0
СВ 4 10 км в посл. час ливневой дождь туман 8/8 240 м
[Cb cap Ac cuf Ci ing]
+31.4 +22.7 62 +41 +48 очень душно 1012.2 1010.5
С 6 10 км слаб. ливневой дождь 5/5 240 м
[Cb]
+30.0 +23.0 66 +40 +44 очень душно 1011.0 1009.0
С 3 10 км ливневой дождь 5/5 240 м
[Cb]
+31.0 +23.0 62 +41 +49 очень душно 1010.0 1008.0
СВ 8 6000 м слаб. ливневой дождь туман 9/8 240 м
[Cb cap Ac cuf Ci ing]
+32.5 +23.5 59 +45 +46 очень душно 1010.1 1008.4 0.0
С 4 10 км ливневой дождь 5/5 240 м
[Cb]
+28.0 1009.0 1007.0
СВ 3 10 км ливневой дождь 5/5 240 м
[Cb]
+29.0 +24.0 74 +40 +42 очень душно 1009.0 1007.0
С 4 10 км в посл. час ливневой дождь туман 9/6 240 м
[Cb cap Ac cuf Ci ing]
+26.6 +25.0 89 +39 +39 очень душно 1009.3 1007.6
С 3 10 км ливневой дождь 8/8 240 м
[Cb]
+26.0 +25.0 94 +37 +37 очень душно 1010.0 1008.0
С 2 10 км 8/8 240 м +26.0 +25.0 94 +37 +37 очень душно 1010.0 1008.0
СВ 2 20 км {ливн. дождь} 9/8 300 м
[Cu Sc Ac und Ci sp]
+25.8 +24.4 89 +36 +36 очень душно 1011.0 1009.3 2 2.0
штиль 0 10 км 5/5 300 м +26.0 +25.0 94 +37 +37 очень душно 1011.0 1009.0
В 2 10 км 5/5 240 м +25.0 +24.0 94 +34 +34 очень душно 1011.0 1008.9
штиль 0 10 км 5/5 240 м +25.0 +23.0 89 +33 +33 очень душно 1011.0 1008.9
ЮВ 2 10 км дымка 8/6 240 м
[Cu Sc Ac trans Ci sp]
+25.2 +24.6 100 +36 +36 очень душно 1010.1 1008.4
В 1 10 км 5/5 240 м +25.0 +25.0 100 +36 +36 очень душно 1009.0 1007.0
СВ 2 10 км 5/5 240 м +25.0 +24.0 94 +34 +34 очень душно 1009.0 1006.9
СВ 2 10 км дымка 5/4 240 м
[Cu Sc Ac trans Ci sp]
+24.9 +24.3 94 +34 +34 очень душно 1010.2 1008.5
СВ 2 10 км 5/5 240 м +25.0 +24.0 94 +34 +34 очень душно 1010.0 1007.9
В 3 10 км 5/5 300 м +26.0 +25.0 94 +37 +38 очень душно 1011.0 1009.0
В 2 10 км мгла 8/4 180 м
[Cu Sc Ac trans Ci sp]
+28.0 +25.8 89 +42 +46 очень душно 1011.8 1010.1 2
СВ 5 10 км 5/5 300 м +31.0 +24.0 66 +43 +46 очень душно 1012.0 1010.0
СВ 4 10 км 8/8 450 м +31.0 +23.0 62 +41 +43 очень душно 1011.0 1009.0
СВ 5 10 км мгла 6/6 600 м
[Cu med, cong Ac trans Ci sp]
+32.8 +22.7 56 +43 +46 очень душно 1011.1 1009.4
СВ 4 10 км слаб. ливневой дождь 5/5 540 м
[Cb]
+33.0 +24.0 59 +45 +52 очень душно 1010.0 1008.0
В 3 н/о ливневой дождь 5/5 450 м
[Cb]
+34.0 +23.0 53 +44 +52 очень душно 1009.0 1007.0
В 5 {18} 2500 м ливневой дождь туман 9/8 150 м
[Cb cap Ac cuf Ci ing]
+29.0 +23.0 70 +39 +44 очень душно 1009.0 1007.0
В 1 н/о слаб. ливневой дождь 8/8 240 м
[Cb]
+26.0 +24.0 89 +36 +39 очень душно 1010.0 1008.0
нст 1 10 км ливневой дождь 8/8 240 м
[Cb]
+26.0 +25.0 94 +37 +38 очень душно 1008.0 1006.0
С 1 9000 м осадки на расстоянии {ливн. дождь} туман 9/8 240 м
[Cb cap Ac cuf Ci ing]
+26.8 +25.5 94 +40 +41 очень душно 1008.6 1006.9
СВ 2 10 км ливневой дождь 5/5 240 м
[Cb]
+27.0 +25.0 89 +39 +39 очень душно 1009.0 1007.0
В 1 10 км 5/5 240 м +26.0 +24.0 89 +36 +36 очень душно 1010.0 1008.0
СВ 2 10 км мгла {ливн. дождь} 9/4 240 м
[Cb cap Ac cuf Ci ing]
+26.4 +25.7 100 +39 +39 очень душно 1010.7 1009.0 16 15.7
В 3 10 км 2/2 240 м +26.0 +25.0 94 +37 +37 очень душно 1011.0 1009.0
ЮВ 1 н/о 5/5 240 м +26.0 +25.0 94 +37 +37 очень душно 1012.0 1010.0
В 1 8000 м дымка туман 8/6 240 м
[Cu Sc Ac lent Ci sp]
+25.6 +24.5 94 +37 +37 очень душно 1012.0 1010.3
В 1 н/о 5/5 240 м +25.0 +25.0 100 +36 +36 очень душно 1011.0 1008.9
В 1 н/о 5/5 240 м +25.0 +25.0 100 +36 +36 очень душно 1011.0 1008.9
штиль 0 8000 м дымка туман 5/3 240 м
[Cu Sc Ac lent Ci sp]
+25.0 +24.4 94 +34 +34 очень душно 1010.2 1008.5
штиль 0 н/о 5/5 240 м +25.0 +24.0 94 +34 +34 очень душно 1009.0 1006.9
штиль 0 н/о 2/2 240 м +25.0 +24.0 94 +34 +34 очень душно 1010.0 1007.9
Ю 1 8000 м дымка туман 9/6 180 м
[Cu Sc Ac lent Ci sp]
+24.8 +24.5 100 +36 +36 очень душно 1010.6 1008.9
штиль 0 н/о 2/2 180 м
[Frnb]
+25.0 +25.0 100 +36 +36 очень душно 1011.0 1008.9
В 1 н/о 5/5 240 м +26.0 +25.0 94 +37 +39 очень душно 1011.0 1009.0
В 4 9000 м дымка {ливн. дождь} туман 8/5 240 м
[Cu Sc Ac lent Ci sp]
+28.0 +25.6 89 +42 +45 очень душно 1012.4 1010.7 16
В 5 н/о 5/5 300 м +30.0 +25.0 75 +43 +47 очень душно 1012.0 1010.0
СВ 5 10 км 5/5 360 м +30.0 +25.0 75 +43 +48 очень душно 1012.0 1010.0
СВ 5 10 км мгла 5/5 450 м
[Cu Sc Ac lent Ci sp]
+32.6 +24.6 63 +47 +52 очень душно 1012.0 1010.3
В 5 10 км ливневой дождь 5/5 450 м
[Cb]
+34.0 +24.0 56 +46 +52 очень душно 1011.0 1009.0
В 7 н/о слаб. ливневой дождь 5/5 360 м
[Cb]
+27.0 +25.0 89 +39 +42 очень душно 1010.0 1008.0
С 4 10 км в посл. час ливневой дождь туман 8/6 360 м
[Cb cap Ac trans Ci sp]
+28.2 +25.4 84 +40 +46 очень душно 1009.3 1007.6 0.5
С 2 н/о ливневой дождь 5/5 300 м
[Cb]
+30.0 +25.0 75 +43 +48 очень душно 1008.0 1006.0
ЮВ 3 н/о гроза, ливневой дождь 5/5 300 м
[Cb]
+27.0 +26.0 94 +40 +42 очень душно 1008.0 1006.0
СЗ 1 10 км в посл. час гроза {ливн. дождь} туман 8/8 300 м
[Cb cap Ac cuf Ci ing]
+26.8 +26.1 94 +40 +41 очень душно 1008.8 1007.1
В 2 10 км 5/5 300 м +27.0 +26.0 94 +40 +40 очень душно 1009.0 1007.0
СВ 3 10 км 5/5 300 м +27.0 +25.0 89 +39 +39 очень душно 1010.0 1008.0
СВ 3 10 км мгла {гроза, ливн. дождь} 8/8 300 м
[Cb cap Ac trans Ci sp]
+26.4 +24.7 94 +37 +37 очень душно 1010.5 1008.8 2 2.2
В 2 10 км 5/5 300 м +26.0 +25.0 94 +37 +37 очень душно 1011.0 1009.0
В 2 10 км 5/5 300 м +26.0 +25.0 94 +37 +37 очень душно 1011.0 1009.0
СВ 2 10 км мгла 6/5 300 м
[Cu Sc Ac trans Ci sp]
+25.6 +24.6 94 +37 +37 очень душно 1011.2 1009.5
СВ 1 10 км 5/5 210 м +25.0 +24.0 94 +34 +34 очень душно 1011.0 1008.9
штиль 0 10 км 5/5 210 м +25.0 +24.0 94 +34 +34 очень душно 1010.0 1007.9
З 1 10 км дымка 5/4 210 м
[Cu Sc Ci sp]
+24.8 +24.5 100 +36 +36 очень душно 1010.2 1008.5
ЮВ 1 10 км 5/5 150 м +25.0 +24.0 94 +34 +34 очень душно 1010.0 1007.9
штиль 0 10 км 5/5 150 м +25.0 +24.0 94 +34 +34 очень душно 1010.0 1007.9
ЮВ 1 10 км 2/2 90 м +25.0 +24.0 94 +34 +34 очень душно 1011.0 1008.9
ЮВ 1 н/о 5/5 90 м
[Frnb]
+25.0 +24.0 94 +34 +34 очень душно 1011.0 1008.9
ЮВ 1 н/о 8/8 90 м
[St]
+25.0 +25.0 100 +36 +36 очень душно 1012.0 1009.9
Ю 1 8000 м дымка 10/6 240 м
[Cb calv Ac lent Cs]
+25.4 +25.0 100 +36 +40 очень душно 1012.7 1011.0 2
ЮВ 3 н/о 5/5 150 м
[Frnb]
+25.0 +25.0 100 +36 +41 очень душно 1013.0 1010.9
ЮВ 4 н/о ливневой дождь 5/5 150 м
[Cb]
+23.0 +23.0 100 +32 +38 очень душно 1014.0 1011.9
В 3 8000 м слаб. ливневой дождь 10/8 240 м
[Cb cap Ac cuf Ci ing]
+23.6 +23.2 94 +32 +41 очень душно 1013.7 1012.0
Ю 3 н/о слаб. ливневой дождь 5/5 240 м
[Cb]
+24.0 +24.0 100 +33 +42 очень душно 1012.0 1009.9
В 2 н/о слаб. ливневой дождь 5/5 240 м
[Cb]
+25.0 +24.0 94 +34 +44 очень душно 1012.0 1009.9
СВ 1 10 км слаб. ливневой дождь 9/8 150 м
[Cb cap Ac cuf Ci ing]
+25.5 +24.6 94 +37 +46 очень душно 1011.1 1009.4 13
СВ 3 10 км слаб. ливневой дождь 5/5 210 м
[Cb]
+26.0 +25.0 94 +37 +41 очень душно 1010.0 1008.0
СВ 3 10 км слаб. ливневой дождь 5/5 210 м
[Cb]
+26.0 +25.0 94 +37 +39 очень душно 1010.0 1008.0
В 3 10 км в посл. час ливневой дождь 9/6 180 м
[Cb cap Ac As Ci ing]
+26.1 +24.5 94 +37 +37 очень душно 1009.8 1008.1
СВ 3 10 км 5/5 240 м +26.0 +25.0 94 +37 +37 очень душно 1010.0 1008.0
В 3 10 км 5/5 240 м +25.0 +24.0 94 +34 +34 очень душно 1010.0 1007.9
СВ 2 20 км {ливн. дождь} 8/5 300 м
[Cu Sc Ac trans Ci ing]
+25.0 +23.8 93 +34 +34 очень душно 1011.5 1009.8 0.0 13.4
СВ 2 10 км слаб. ливневой дождь 5/5 300 м
[Cb]
+25.0 +24.0 94 +34 +34 очень душно 1012.0 1009.9
штиль 0 10 км 5/5 300 м +25.0 +24.0 94 +34 +34 очень душно 1012.0 1009.9
штиль 0 10 км слаб. ливневой дождь 8/6 300 м
[Cu Sc Ac trans Ci ing]
+24.6 +24.0 94 +34 +34 очень душно 1012.1 1010.4
штиль 0 10 км слаб. дождь 5/5 150 м
[Ns]
+24.0 +24.0 100 +33 +33 очень душно 1011.0 1008.9
Ю 2 10 км слаб. дождь 5/5 150 м
[Ns]
+24.0 +24.0 100 +33 +33 очень душно 1010.0 1007.9
штиль 0 10 км слаб. дождь 9/6 150 м
[Cu Sc Ac trans Ci sp]
+24.0 +23.7 100 +33 +33 очень душно 1010.4 1008.7
Ю 1 10 км 5/5 90 м +24.0 +24.0 100 +33 +33 очень душно 1010.0 1007.9
штиль 0 10 км 5/5 90 м +24.0 +24.0 100 +33 +33 очень душно 1009.0 1006.9
В 3 4000 м гроза, ливневой дождь 9/8 240 м
[Cb cap Ac cuf Ci ing]
+23.7 +23.0 94 +32 +32 очень душно 1011.2 1009.5
В 2 н/о гроза, ливневой дождь 5/5 240 м
[Cb]
+24.0 +23.0 94 +32 +32 очень душно 1011.0 1008.9
С 1 н/о гроза, ливневой дождь 8/8 240 м
[Cb]
+24.0 +24.0 100 +33 +33 очень душно 1011.0 1008.9
С 1 5000 м гроза, ливневой дождь туман 9/8 150 м
[Cb cap Ac cuf Ci ing]
+24.0 +23.7 100 +33 +37 очень душно 1012.5 1010.8
С 1 10 км слаб. ливневой дождь 5/5 150 м
[Cb]
+25.0 +24.0 94 +34 +42 очень душно 1012.0 1009.9
З 1 10 км ливневой дождь 5/5 150 м
[Cb]
+27.0 +25.0 89 +39 +49 очень душно 1011.0 1009.0
ЮВ 3 10 км осадки на расстоянии {гроза, ливн. дождь} 9/8 150 м
[Cb cap Ac cuf Ci ing]
+28.4 +24.4 79 +39 +48 очень душно 1010.7 1009.0
В 3 10 км ливневой дождь 5/5 150 м
[Cb]
+29.0 +25.0 79 +42 +51 очень душно 1011.0 1009.0
В 5 10 км ливневой дождь 5/5 150 м
[Cb]
+30.0 +25.0 75 +43 +49 очень душно 1010.0 1008.0
С 5 10 км осадки на расстоянии {гроза, ливн. дождь} 9/8 150 м
[Cb cap Ac cuf Ci ing]
+31.2 +24.7 70 +44 +48 очень душно 1009.6 1007.9 36
СВ 6 н/о слаб. ливневой дождь 5/5 150 м
[Cb]
+28.0 +25.0 84 +40 +43 очень душно 1008.0 1006.0
С 4 10 км гроза без осадков 5/5 180 м
[Cb]
+28.0 +26.0 89 +42 +45 очень душно 1008.0 1006.0
В 7 4000 м гроза, ливневой дождь 9/8 180 м
[Cb cap Ac cuf Ci ing]
+26.0 +25.0 94 +37 +37 очень душно 1010.0 1008.0
ЮВ 1 н/о гроза, ливневой дождь 5/5 150 м
[Cb]
+24.0 +24.0 100 +33 +33 очень душно 1010.0 1007.9
Ю 2 н/о слаб. ливневой дождь 5/5 150 м
[Cb]
+24.0 +24.0 100 +33 +33 очень душно 1010.0 1007.9
штиль 0 20 км в посл. час ливневой дождь {гроза} 9/8 150 м
[Cb cap Ac cuf Ci ing]
+24.4 +24.1 100 +33 +33 очень душно 1011.3 1009.6 27 63.2
СВ 1 10 км слаб. дождь 5/5 150 м
[Ns]
+25.0 +25.0 100 +36 +36 очень душно 1012.0 1009.9
С 1 10 км 5/5 150 м +25.0 +24.0 94 +34 +34 очень душно 1012.0 1009.9
штиль 0 10 км слаб. дождь 9/6 150 м
[Cu Sc Ac lent Cs]
+25.0 +24.4 94 +34 +34 очень душно 1012.1 1010.4
СВ 1 10 км 5/5 120 м +25.0 +24.0 94 +34 +34 очень душно 1011.0 1008.9
штиль 0 10 км 5/5 90 м +25.0 +25.0 100 +36 +36 очень душно 1010.0 1007.9
штиль 0 10 км слаб. дождь 9/6 90 м
[Cu Sc Ac trans Cs]
+24.9 +24.6 100 +36 +36 очень душно 1010.7 1009.0 0.2
штиль 0 10 км 5/5 90 м +25.0 +25.0 100 +36 +36 очень душно 1010.0 1007.9
ЮВ 1 10 км 5/5 90 м +25.0 +25.0 100 +36 +36 очень душно 1010.0 1007.9
Ю 1 7000 м дымка {дождь} 6/5 90 м
[Cu Sc Ac und Ci sp]
+24.9 +24.8 100 +36 +36 очень душно 1011.2 1009.5
ЮВ 1 10 км ливневой дождь 5/5 240 м
[Cb]
+25.0 +24.0 94 +34 +34 очень душно 1012.0 1009.9
штиль 0 10 км 5/5 150 м +25.0 +25.0 100 +36 +37 очень душно 1012.0 1009.9
ЮВ 2 10 км осадки на расстоянии {дождь} туман 9/8 150 м
[Cb calv Ac lent Ci sp]
+27.2 +24.9 89 +39 +43 очень душно 1013.6 1011.9 29
ЮВ 3 н/о ливневой дождь 5/5 150 м
[Cb]
+28.0 +25.0 84 +40 +46 очень душно 1013.0 1011.0
ЮВ 4 н/о 5/5 240 м +30.0 +25.0 75 +43 +49 очень душно 1013.0 1011.0
В 3 9000 м мгла 8/6 300 м
[Cb calv Ac lent Ci sp]
+32.0 +25.1 67 +46 +55 очень душно 1012.6 1010.9
ЮВ 3 н/о 5/5 360 м +33.0 +24.0 59 +45 +54 очень душно 1011.0 1009.0
ЮВ 4 н/о 5/5 360 м +33.0 +25.0 63 +47 +53 очень душно 1010.0 1008.0
ЮВ 2 9000 м мгла 6/5 450 м
[Cb calv Ac lent Ci sp]
+33.2 +24.2 59 +45 +52 очень душно 1009.7 1008.0
В 4 н/о 5/5 450 м +33.0 +23.0 56 +43 +46 очень душно 1008.0 1006.0
Ю 2 н/о ливневой дождь 5/5 450 м
[Cb]
+33.0 +25.0 63 +47 +49 очень душно 1008.0 1006.0
С 2 9000 м мгла 6/5 360 м
[Cb calv Ac lent Ci sp]
+31.2 +24.1 66 +43 +43 очень душно 1008.5 1006.8
С 4 н/о 5/5 360 м +29.0 +25.0 79 +42 +42 очень душно 1009.0 1007.0
СВ 5 н/о 2/2 300 м +27.0 +25.0 89 +39 +39 очень душно 1010.0 1008.0
СВ 4 9000 м мгла {ливн. дождь} 5/3 300 м
[Cu Sc Ac lent Ci sp]
+27.0 +24.4 84 +37 +37 очень душно 1010.9 1009.2 0.0 1.8
СВ 3 н/о 2/2 300 м +27.0 +24.0 84 +37 +37 очень душно 1011.0 1009.0
В 2 10 км 2/2 300 м +26.0 +25.0 94 +37 +37 очень душно 1012.0 1010.0
СВ 1 9000 м мгла 5/1 240 м
[Cu Sc Ac trans Ci sp]
+25.4 +24.7 100 +36 +36 очень душно 1013.1 1011.4
штиль 0 н/о 5/5 240 м +25.0 +25.0 100 +36 +36 очень душно 1012.0 1009.9
СВ 2 н/о 5/5 240 м +25.0 +24.0 94 +34 +34 очень душно 1012.0 1009.9
СВ 2 8000 м дымка туман 9/8 240 м
[Cu Sc Ac trans Ci sp]
+24.5 +24.2 98 +34 +34 очень душно 1011.6 1009.9
В 2 10 км 5/5 240 м +24.0 +24.0 100 +33 +33 очень душно 1011.0 1008.9
штиль 0 н/о 5/5 240 м +24.0 +24.0 100 +33 +33 очень душно 1011.0 1008.9
В 2 9000 м дымка туман 5/4 240 м
[Cu Sc Ac trans Ci sp]
+24.5 +24.2 94 +34 +34 очень душно 1012.2 1010.5
СВ 2 н/о 2/2 240 м +25.0 +24.0 94 +34 +34 очень душно 1012.0 1009.9
В 2 н/о 2/2 300 м +26.0 +25.0 94 +37 +39 очень душно 1013.0 1010.9
В 5 8000 м мгла 6/4 300 м
[Cu Sc Ac trans Ci sp]
+28.4 +25.3 84 +40 +42 очень душно 1013.9 1012.2 0.0
В 5 н/о 5/5 450 м +30.0 +25.0 75 +43 +47 очень душно 1014.0 1012.0
В 5 н/о 5/5 540 м +31.0 +24.0 66 +43 +47 очень душно 1013.0 1011.0
В 4 8000 м мгла 6/6 600 м
[Cu med, cong Ac trans Ci sp]
+32.2 +23.6 63 +44 +47 очень душно 1013.4 1011.7
В 4 н/о 5/5 300 м +33.0 +23.0 56 +43 +51 очень душно 1012.0 1010.0
В 3 н/о 5/5 300 м +33.0 +23.0 56 +43 +51 очень душно 1011.0 1009.0
В 3 9000 м мгла 6/6 300 м
[Cb cap Ac trans Ci sp]
+33.8 +23.2 53 +44 +50 очень душно 1010.4 1008.7
С 5 н/о 8/8 750 м +33.0 +24.0 59 +45 +46 очень душно 1009.0 1007.0
С 6 н/о 5/5 360 м +32.0 +24.0 63 +44 +45 очень душно 1009.0 1007.0
СВ 6 8000 м мгла 8/5 540 м
[Cu Sc Ac trans Ci sp]
+29.7 +22.6 66 +40 +40 очень душно 1010.0 1008.3
СВ 5 н/о 2/2 450 м +28.0 +24.0 79 +39 +39 очень душно 1010.0 1008.0
СВ 5 н/о 2/2 750 м +27.0 +25.0 89 +39 +39 очень душно 1011.0 1009.0
СВ 4 10 км мгла 8/1 900 м
[Sc Ac trans Ci sp]
+26.8 +24.5 89 +39 +39 очень душно 1012.0 1010.3
СВ 3 10 км 2/2 900 м +26.0 +24.0 89 +36 +36 очень душно 1013.0 1010.9
В 3 н/о 2/2 900 м +26.0 +24.0 89 +36 +36 очень душно 1013.0 1010.9
В 2 8000 м дымка туман 8/3 750 м
[Sc Ac und Cs]
+25.2 +24.5 100 +36 +36 очень душно 1013.3 1011.6
В 1 н/о 2/2 750 м +25.0 +24.0 94 +34 +34 очень душно 1012.0 1009.9
В 2 н/о 2/2 750 м +25.0 +24.0 94 +34 +34 очень душно 1011.0 1008.9
СВ 1 8000 м дымка 8/4 240 м
[Cu Sc Ac lent Cs]
+24.4 +23.8 100 +33 +33 очень душно 1011.0 1008.9
штиль 0 н/о 5/5 180 м
[Frnb]
+24.0 +23.0 94 +32 +32 очень душно 1011.0 1008.9
Местоположение метеостанции Зандерей (Суринам): широта 5.45 долгота -55.19 высота над уровнем моря 15 м.
В архиве по умолчанию представлена погода в Зандерее за последнюю неделю. Архивные данные за месяц целиком и за предыдущие месяцы, начиная с января 2011 года, Вы можете получить, выбрав интересующий диапазон дат из раскрывающегося списка и нажав кнопку "Найти!".
*Определитесь, кто Вы:
Внимание! Время в таблицах - всемирное. Для получения местного времени необходимо прибавить поправку, которая равна -3 ч.
Некоторые строки с данными для отдельных станций могут быть выделены курсивом. Это означает, что фактические данные отсутствуют по различным причинам, а приведенные значения являются расчетными модельными данными для данного пункта наблюдений.
Смотрите также архив погоды в соседних городах и на ближайших метеорологических станциях:
Партнеры нашего сайта:      
Пояснения к столбцам:
  • Ветер - указаны скорость ветра в м/с - средняя за 10 мин, порывы в срок и между сроками (в фигурных скобках) и направление, откуда дует ветер: С - северный,
  • СВ - северо-восточный, В - восточный, ЮВ - юго-восточный, Ю - южный, ЮЗ - юго-западный, З - западный, СЗ - северо-западный.
  • Видимость - горизонтальная дальность видимости в метрах или километрах. При видимости от 1 до 10 км при отсутствии осадков обычно наблюдается дымка, при ухудшении видимости до 1 км и менее - туман. В сухую погоду видимость может ухудшаться дымом, пылью или мглою.
  • Явления - указаны атмосферные явления, наблюдавшиеся в срок или в последний час перед сроком; фигурными скобками обозначены явления, наблюдавшиеся между сроками (за 1-3 часа до срока); квадратными скобками обозначены град или гололедные отложения с указанием их диаметра в мм.
  • Облачность - указаны через наклонную черту общая и нижняя облачность в баллах и высота нижней границы облаков в метрах; квадратными скобками обозначены формы облаков: Ci - перистые, Cs - перисто-слоистые, Cc - перисто-кучевые, Ac - высококучевые, As - высокослоистые, Sc - слоисто-кучевые, Ns - слоисто-дождевые, Cu - кучевые, Cb - кучево-дождевые. Подробнее классификацию облаков см. в Атласе облаков (PDF).
  • T - Температура воздуха - температура, измеренная на высоте 2 м над землей.
  • Td - Температура точки росы - температура, при понижении до которой содержащийся в воздухе водяной пар достигнет насыщения.
  • f - Относительная влажность воздуха - влажноcть воздуха, измеренная на высоте 2 м над землей.
  • Te - Эффективная температура - температура, которую ощущает одетый по сезону человек в тени. Характеристика душности погоды. При расчете учитывается влияние влажности воздуха и скорости ветра на теплоощущения человека.
  • Tes - Эффективная температура на солнце - температура, которую ощущает человек, с поправкой на солнечный нагрев. Характеристика знойности погоды. Зависит от высоты солнца над горизонтом, облачности и скорости ветра. Ночью, в пасмурную погоду, а также при ветре 12 м/с и более поправка равна нулю.
  • P - Атмосферное давление - приведенное к уровню моря атмосферное давление.
  • Po - Атмосферное давление - измеренное на уровне метеостанции атмосферное давление.
  • Tmin - Минимальная температура - минимум температуры воздуха на высоте 2 м над землей.
  • Tmax - Максимальная температура - максимум температуры воздуха на высоте 2 м над землей.
  • R - Количество осадков - Количество выпавших осадков за период времени, мм. При наведении курсора мыши на число - период времени, за который выпало указанное количество осадков.
  • R24 - Количество осадков - Количество выпавших осадков за 24 часа, мм.
  • S - Снежный покров - Высота снежного покрова, см. При наведении курсора мыши на число - состояние снежного покрова и степень покрытия местности в баллах.